Whiteville, NC

12:41 PM EDT on August 20, 2017 (GMT -0400)
Columbus County Municipal

Weather History for KCPC - February, 2013

Change the Weather History Date:

Monday, February 4, 2013

  Actual Average (KCRE) Record (KCRE)
Temperature  
Mean Temperature 38 °F -  
Max Temperature 49 °F 53 °F 72 °F (1999)
Min Temperature 27 °F 36 °F 18 °F (1951)
Degree Days  
Heating Degree Days 27    
Moisture  
Dew Point 27 °F    
Average Humidity 61    
Maximum Humidity 93    
Minimum Humidity 35    
Precipitation  
Precipitation 0.00 in - - ()
Sea Level Pressure  
Sea Level Pressure 30.09 in    
Wind  
Wind Speed 1 mph (ESE)    
Max Wind Speed 6 mph    
Max Gust Speed -    
Visibility 10 miles    
Events      
Averages and records for this station are not official NWS values.
T = Trace of Precipitation, MM = Missing Value Source: NWS Daily Summary

Daily Weather History Graph

Daily Weather History Graph

Search for Another Location

Airport or City:

Trip Planner

Search our weather history database for the weather conditions in past years. The results will help you decide how hot, cold, wet, or windy it might be!

Date:

Astronomy

Feb. 04, 2013 Rise Set
Actual Time 7:09 AM EST 5:48 PM EST
Civil Twilight 6:43 AM EST 6:14 PM EST
Nautical Twilight 6:13 AM EST 6:44 PM EST
Astronomical Twilight 5:44 AM EST 7:13 PM EST
Moon 1:40 AM EST (2/4) 12:14 PM EST (2/4)
Length of Visible Light 11h 30m
Length of Day
10h 38m
Last Quarter, 37% of the Moon is Illuminated
Feb 4
Last Quarter
Feb 10
New
Feb 17
First Quarter
Feb 25
Full
Mar 4
Last Quarter

Hourly Weather History & Observations

Time (EST) Temp. Windchill Dew Point Humidity Pressure Visibility Wind Dir Wind Speed Gust Speed Precip Events Conditions
12:15 AM 40.1 °F - 28.4 °F 63% 30.01 in 10.0 mi Calm Calm - N/A   Clear
12:35 AM 38.8 °F - 28.8 °F 67% 30.02 in 10.0 mi Calm Calm - N/A   Clear
12:55 AM 37.8 °F - 28.2 °F 68% 30.03 in 10.0 mi Calm Calm - N/A   Clear
1:15 AM 36.0 °F - 28.9 °F 76% 30.02 in 10.0 mi Calm Calm - N/A   Clear
1:35 AM 35.6 °F - 28.8 °F 76% 30.03 in 10.0 mi Calm Calm - N/A   Clear
1:55 AM 34.2 °F - 28.6 °F 80% 30.03 in 10.0 mi Calm Calm - N/A   Clear
2:15 AM 33.8 °F - 27.5 °F 78% 30.03 in 10.0 mi Calm Calm - N/A   Clear
2:35 AM 32.4 °F - 27.5 °F 82% 30.04 in 10.0 mi Calm Calm - N/A   Clear
2:55 AM 31.8 °F - 27.7 °F 85% 30.04 in 10.0 mi Calm Calm - N/A   Clear
3:15 AM 31.3 °F - 27.7 °F 87% 30.05 in 10.0 mi Calm Calm - N/A   Clear
3:35 AM 31.5 °F - 28.2 °F 88% 30.06 in 10.0 mi Calm Calm - N/A   Clear
3:55 AM 30.6 °F - 27.0 °F 86% 30.05 in 10.0 mi Calm Calm - N/A   Clear
4:15 AM 30.4 °F - 27.5 °F 89% 30.06 in 10.0 mi Calm Calm - N/A   Clear
5:55 AM 28.0 °F - 25.7 °F 91% 30.08 in 10.0 mi Calm Calm - N/A   Clear
6:15 AM 28.8 °F - 27.0 °F 93% 30.08 in 10.0 mi Calm Calm - N/A   Clear
6:35 AM 27.5 °F - 25.7 °F 93% 30.09 in 10.0 mi Calm Calm - N/A   Clear
7:15 AM 28.8 °F - 26.4 °F 91% 30.10 in 10.0 mi Calm Calm - N/A   Clear
7:35 AM 29.5 °F - 26.6 °F 89% 30.11 in 10.0 mi Calm Calm - N/A   Clear
7:55 AM 31.8 °F - 28.2 °F 87% 30.12 in 10.0 mi Calm Calm - N/A   Clear
8:15 AM 32.0 °F - 28.4 °F 87% 30.13 in 10.0 mi Calm Calm - N/A   Clear
8:35 AM 34.7 °F - 28.8 °F 79% 30.14 in 10.0 mi Calm Calm - N/A   Clear
8:55 AM 38.5 °F - 28.8 °F 68% 30.15 in 10.0 mi Calm Calm - N/A   Clear
9:15 AM 38.7 °F - 28.4 °F 67% 30.15 in 10.0 mi Calm Calm - N/A   Clear
9:35 AM 41.0 °F 38.0 °F 26.4 °F 56% 30.16 in 10.0 mi East 4.6 mph - N/A   Clear
9:55 AM 41.7 °F 39.8 °F 25.2 °F 52% 30.17 in 10.0 mi ENE 3.5 mph - N/A   Clear
10:15 AM 42.3 °F 39.4 °F 25.2 °F 51% 30.16 in 10.0 mi East 4.6 mph - N/A   Clear
10:35 AM 43.7 °F - 23.5 °F 45% 30.17 in 10.0 mi Calm Calm - N/A   Clear
10:55 AM 44.4 °F 42.0 °F 24.3 °F 45% 30.16 in 10.0 mi North 4.6 mph - N/A   Clear
11:15 AM 44.6 °F 42.2 °F 22.3 °F 41% 30.16 in 10.0 mi NNE 4.6 mph - N/A   Clear
11:35 AM 46.0 °F 43.9 °F 23.0 °F 40% 30.15 in 10.0 mi NNE 4.6 mph - N/A   Clear
11:55 AM 46.6 °F - 22.8 °F 39% 30.15 in 10.0 mi Calm Calm - N/A   Clear
12:15 PM 46.6 °F - 21.6 °F 37% 30.13 in 10.0 mi Calm Calm - N/A   Clear
12:35 PM 47.3 °F - 22.1 °F 37% 30.13 in 10.0 mi Calm Calm - N/A   Clear
12:55 PM 47.7 °F - 22.8 °F 38% 30.12 in 10.0 mi ENE 3.5 mph - N/A   Clear
1:15 PM 48.4 °F - 23.0 °F 37% 30.11 in 10.0 mi North 3.5 mph - N/A   Clear
1:35 PM 48.4 °F - 21.9 °F 35% 30.10 in 10.0 mi Calm Calm - N/A   Clear
1:55 PM 48.7 °F - 22.3 °F 35% 30.10 in 10.0 mi East 3.5 mph - N/A   Clear
2:15 PM 48.6 °F - 23.2 °F 37% 30.09 in 10.0 mi Calm Calm - N/A   Clear
2:35 PM 48.6 °F - 21.6 °F 35% 30.08 in 10.0 mi Calm Calm - N/A   Clear
2:55 PM 48.7 °F - 23.2 °F 37% 30.08 in 10.0 mi SSE 3.5 mph - N/A   Clear
3:15 PM 48.9 °F - 22.8 °F 36% 30.08 in 10.0 mi Calm Calm - N/A   Clear
3:35 PM 49.1 °F - 22.5 °F 35% 30.08 in 10.0 mi Calm Calm - N/A   Clear
3:55 PM 49.1 °F - 22.1 °F 35% 30.08 in 10.0 mi Calm Calm - N/A   Clear
4:15 PM 49.1 °F - 23.7 °F 37% 30.08 in 10.0 mi Calm Calm - N/A   Clear
4:35 PM 48.7 °F - 25.5 °F 40% 30.08 in 10.0 mi Calm Calm - N/A   Clear
4:55 PM 49.1 °F - 24.8 °F 39% 30.08 in 10.0 mi South 4.6 mph - N/A   Clear
5:15 PM 48.4 °F - 26.6 °F 43% 30.07 in 10.0 mi Calm Calm - N/A   Clear
5:35 PM 46.6 °F - 30.4 °F 53% 30.08 in 10.0 mi Calm Calm - N/A   Clear
5:55 PM 45.9 °F 43.6 °F 30.4 °F 55% 30.08 in 10.0 mi South 4.6 mph - N/A   Clear
6:15 PM 46.6 °F - 31.1 °F 55% 30.08 in 10.0 mi South 4.6 mph - N/A   Clear
6:35 PM 46.0 °F 43.9 °F 30.7 °F 55% 30.08 in 10.0 mi South 4.6 mph - N/A   Clear
6:55 PM 45.7 °F 42.7 °F 30.6 °F 56% 30.07 in 10.0 mi South 5.8 mph - N/A   Clear
7:15 PM 45.0 °F 43.5 °F 30.6 °F 57% 30.07 in 10.0 mi South 3.5 mph - N/A   Clear
7:35 PM 44.6 °F 43.1 °F 31.1 °F 59% 30.08 in 10.0 mi South 3.5 mph - N/A   Clear
7:55 PM 44.1 °F - 31.5 °F 61% 30.08 in 10.0 mi Calm Calm - N/A   Clear
8:15 PM 43.5 °F - 31.8 °F 63% 30.08 in 10.0 mi Calm Calm - N/A   Clear
8:35 PM 42.4 °F - 32.4 °F 68% 30.07 in 10.0 mi Calm Calm - N/A   Clear
8:55 PM 41.9 °F - 32.4 °F 69% 30.07 in 10.0 mi Calm Calm - N/A   Clear
9:15 PM 41.5 °F - 32.9 °F 71% 30.07 in 10.0 mi Calm Calm - N/A   Clear
9:55 PM 41.0 °F - 34.2 °F 77% 30.07 in 10.0 mi Calm Calm - N/A   Clear
10:15 PM 41.5 °F - 32.7 °F 71% 30.07 in 10.0 mi Calm Calm - N/A   Clear
10:35 PM 41.7 °F - 32.4 °F 69% 30.07 in 10.0 mi Calm Calm - N/A   Clear
10:55 PM 41.5 °F - 32.4 °F 70% 30.07 in 10.0 mi Calm Calm - N/A   Clear
11:15 PM 42.3 °F - 32.2 °F 67% 30.08 in 10.0 mi Calm Calm - N/A   Clear
11:35 PM 41.5 °F - 33.1 °F 72% 30.07 in 10.0 mi Calm Calm - N/A   Clear
11:55 PM 41.4 °F - 33.1 °F 72% 30.06 in 10.0 mi Calm Calm - N/A   Clear